Погода в Орловке

Россия / Белгородская область     51°04′50″N   36°21′18″E
В апреле 2022 года жителям России запретили посещать сайт meteo.paraplan.net по решению Генеральной прокуратуры. Аудитория сайта уменьшилась в 10 раз. Владельцы сайта не видят смысла в поддержке погодного сервера в таких условиях. Сайт будет закрыт в октябре.
темп.,
°C
ветер,
м/с
пор.,
м/с
влажн.,
%
обл.,
%
осадки,
мм/ч
давл.,
гПа
погр.,
м
25 сентября, вс
вс2500:00+8з61188100 0.2 10091270
03:00+8зюз91589100 1.4 10081300
06:00+8з91492100 5.2 10071253
09:00+7з81389100 7.1 10091239
12:00+10з9137590 0.1 10101120
15:00+13з8135727 0.1 10111573
18:00+11з713615 0.0 1012629
21:00+8зюз5127313 0.0 1013280
26 сентября, пн
пн2600:00+9з5117077 0.0 1014405
03:00+9зюз41268100 0.0 1014409
06:00+9юз3671100 0.0 1014169
09:00+11юз366892 0.0 1015284
12:00+15зюз4656100 0.0 10141293
15:00+15з3562100 0.1 10141124
18:00+12зсз1173100 0.0 101410
21:00+11вюв1175100 0.0 101313
27 сентября, вт
вт2700:00+10юв3595100 3.4 1012194
03:00+10вюв4898100 12.6 1010289
06:00+10вюв3595100 1.4 1009251
09:00+12ююв2286100 1.4 1009246
12:00+14ю2481100 0.0 1008465
15:00+13ю2493100 0.8 1008139
18:00+12юв4797100 1.4 1007220
21:00+13вюв41095100 2.0 1006293
28 сентября, ср
ср2800:00+13ююв51483100 0.1 1004483
03:00+12вюв4693100 2.1 1002158
06:00+12вюв61190100 1.0 1001361
09:00+12ююв51094100 2.9 999366
12:00+14ююз499597 0.9 1000564
15:00+15зюз6988100 1.3 1001606
18:00+14зюз598696 0.1 1003524
21:00+12зюз41085100 0.1 1005318
29 сентября, чт
чт2900:00+10з38930 0.0 1007173
03:00+9з33950 0.0 100958
06:00+9зсз22958 0.0 101112
09:00+12ю11835 0.0 1012175
12:00+16юз22675 0.0 1013887
15:00+18ю115288 0.0 10141120
18:00+15в1164100 0.0 101511
21:00+13вюв357399 0.0 101678